Location: Azul
(36.7830°S, 59.8500°W)
Time: 01:29:39
(UTC-03:00)

UNISAT 6 - Visible Passes

Search period start: 19 September 2024 00:00
Search period end: 29 September 2024 00:00
Orbit: 589 x 661 km, 97.7° (Epoch: 18 September)

Date Brightness Start Highest point End Pass type
(mag) Time Alt. Az. Time Alt. Az. Time Alt. Az.
19 Sep ? 05:21:21 10° SSE 05:25:38 68° ENE 05:29:47 10° N visible
20 Sep ? 05:40:15 10° S 05:44:31 71° WSW 05:48:41 10° NNW visible
21 Sep ? 04:24:42 10° ESE 04:26:55 14° E 04:29:06 10° ENE visible
21 Sep ? 05:59:19 10° S 06:03:21 41° WSW 06:07:17 10° NW visible
22 Sep ? 04:42:33 10° SE 04:45:57 23° E 04:49:17 10° NNE visible
22 Sep ? 06:18:35 10° SSW 06:22:06 25° WSW 06:25:33 10° NW visible
23 Sep ? 05:00:56 10° SSE 05:04:55 37° E 05:08:48 10° NNE visible
24 Sep ? 05:19:34 10° SSE 05:23:48 65° E 05:27:57 10° N visible
25 Sep ? 05:38:23 10° S 05:42:38 74° WSW 05:46:48 10° NNW visible
26 Sep ? 04:22:55 10° ESE 04:24:56 13° E 04:26:57 10° ENE visible
26 Sep ? 05:57:22 10° S 06:01:23 43° WSW 06:05:21 10° NW visible
27 Sep ? 04:40:37 10° SE 04:43:55 22° E 04:47:09 10° NE visible
28 Sep ? 04:58:53 10° SSE 05:02:48 36° E 05:06:39 10° NNE visible
